Data supplied by UK-AIR on 30/3/2021
All Data GMT hour ending 
Status: R =Ratified P=Provisional,P*=As supplied
,,Weybourne,,,,,,,,,,,,,,,,,,,,,,,
Date,time,"Ozone",status,unit
 
01-01-2020,01:00,45.43544,R,ugm-3
01-01-2020,02:00,51.22297,R,ugm-3
01-01-2020,03:00,54.13336,R,ugm-3
01-01-2020,04:00,52.73637,R,ugm-3
01-01-2020,05:00,39.21551,R,ugm-3
01-01-2020,06:00,33.67744,R,ugm-3
01-01-2020,07:00,33.22841,R,ugm-3
01-01-2020,08:00,30.93335,R,ugm-3
01-01-2020,09:00,28.48862,R,ugm-3
01-01-2020,10:00,26.49292,R,ugm-3
01-01-2020,11:00,26.09378,R,ugm-3
01-01-2020,12:00,25.34539,R,ugm-3
01-01-2020,13:00,23.54926,R,ugm-3
01-01-2020,14:00,20.30625,R,ugm-3
01-01-2020,15:00,18.26066,R,ugm-3
01-01-2020,16:00,14.96775,R,ugm-3
01-01-2020,17:00,17.01334,R,ugm-3
01-01-2020,18:00,17.11313,R,ugm-3
01-01-2020,19:00,16.11528,R,ugm-3
01-01-2020,20:00,18.26066,R,ugm-3
01-01-2020,21:00,27.69034,R,ugm-3
01-01-2020,22:00,35.97249,R,ugm-3
01-01-2020,23:00,40.21336,R,ugm-3
01-01-2020,24:00,46.79917,R,ugm-3
02-01-2020,01:00,45.16934,R,ugm-3
02-01-2020,02:00,42.30884,R,ugm-3
02-01-2020,03:00,32.48002,R,ugm-3
02-01-2020,04:00,36.12217,R,ugm-3
02-01-2020,05:00,41.16131,R,ugm-3
02-01-2020,06:00,42.10927,R,ugm-3
02-01-2020,07:00,46.40003,R,ugm-3
02-01-2020,08:00,48.64519,R,ugm-3
02-01-2020,09:00,48.79487,R,ugm-3
02-01-2020,10:00,44.75357,R,ugm-3
02-01-2020,11:00,39.06583,R,ugm-3
02-01-2020,12:00,38.66669,R,ugm-3
02-01-2020,13:00,44.65379,R,ugm-3
02-01-2020,14:00,48.24605,R,ugm-3
02-01-2020,15:00,48.64519,R,ugm-3
02-01-2020,16:00,46.99874,R,ugm-3
02-01-2020,17:00,49.54325,R,ugm-3
02-01-2020,18:00,53.58455,R,ugm-3
02-01-2020,19:00,61.21810,R,ugm-3
02-01-2020,20:00,64.36133,R,ugm-3
02-01-2020,21:00,63.56305,R,ugm-3
02-01-2020,22:00,62.21595,R,ugm-3
02-01-2020,23:00,62.51530,R,ugm-3
02-01-2020,24:00,63.51315,R,ugm-3
03-01-2020,01:00,62.86455,R,ugm-3
03-01-2020,02:00,63.26369,R,ugm-3
03-01-2020,03:00,60.27014,R,ugm-3
03-01-2020,04:00,59.17251,R,ugm-3
03-01-2020,05:00,46.99874,R,ugm-3
03-01-2020,06:00,43.30669,R,ugm-3
03-01-2020,07:00,43.40648,R,ugm-3
03-01-2020,08:00,44.15486,R,ugm-3
03-01-2020,09:00,42.50841,R,ugm-3
03-01-2020,10:00,69.55015,R,ugm-3
03-01-2020,11:00,71.24649,R,ugm-3
03-01-2020,12:00,69.50025,R,ugm-3
03-01-2020,13:00,67.70412,R,ugm-3
03-01-2020,14:00,58.27444,R,ugm-3
03-01-2020,15:00,57.07702,R,ugm-3
03-01-2020,16:00,56.22885,R,ugm-3
03-01-2020,17:00,52.43702,R,ugm-3
03-01-2020,18:00,50.99014,R,ugm-3
03-01-2020,19:00,54.58240,R,ugm-3
03-01-2020,20:00,55.87960,R,ugm-3
03-01-2020,21:00,58.02498,R,ugm-3
03-01-2020,22:00,54.98154,R,ugm-3
03-01-2020,23:00,51.63874,R,ugm-3
03-01-2020,24:00,52.48691,R,ugm-3
04-01-2020,01:00,53.28519,R,ugm-3
04-01-2020,02:00,53.95042,R,ugm-3
04-01-2020,03:00,55.18111,R,ugm-3
04-01-2020,04:00,56.17896,R,ugm-3
04-01-2020,05:00,56.42842,R,ugm-3
04-01-2020,06:00,56.32863,R,ugm-3
04-01-2020,07:00,57.92519,R,ugm-3
04-01-2020,08:00,61.56735,R,ugm-3
04-01-2020,09:00,60.91874,R,ugm-3
04-01-2020,10:00,57.02713,R,ugm-3
04-01-2020,11:00,57.17681,R,ugm-3
04-01-2020,12:00,56.27874,R,ugm-3
04-01-2020,13:00,58.02498,R,ugm-3
04-01-2020,14:00,57.37638,R,ugm-3
04-01-2020,15:00,54.93164,R,ugm-3
04-01-2020,16:00,53.23530,R,ugm-3
04-01-2020,17:00,55.18111,R,ugm-3
04-01-2020,18:00,51.88820,R,ugm-3
04-01-2020,19:00,50.99014,R,ugm-3
04-01-2020,20:00,50.44132,R,ugm-3
04-01-2020,21:00,49.99229,R,ugm-3
04-01-2020,22:00,48.49551,R,ugm-3
04-01-2020,23:00,47.79702,R,ugm-3
04-01-2020,24:00,51.48906,R,ugm-3
05-01-2020,01:00,51.02340,R,ugm-3
05-01-2020,02:00,52.68648,R,ugm-3
05-01-2020,03:00,48.29594,R,ugm-3
05-01-2020,04:00,54.93164,R,ugm-3
05-01-2020,05:00,56.47831,R,ugm-3
05-01-2020,06:00,56.42842,R,ugm-3
05-01-2020,07:00,58.12476,R,ugm-3
05-01-2020,08:00,63.91229,R,ugm-3
05-01-2020,09:00,58.02498,R,ugm-3
05-01-2020,10:00,53.43487,R,ugm-3
05-01-2020,11:00,62.26584,R,ugm-3
05-01-2020,12:00,61.61724,R,ugm-3
05-01-2020,13:00,60.56950,R,ugm-3
05-01-2020,14:00,62.61509,R,ugm-3
05-01-2020,15:00,60.07057,R,ugm-3
05-01-2020,16:00,59.57165,R,ugm-3
05-01-2020,17:00,59.37208,R,ugm-3
05-01-2020,18:00,60.12046,R,ugm-3
05-01-2020,19:00,61.01853,R,ugm-3
05-01-2020,20:00,61.91659,R,ugm-3
05-01-2020,21:00,61.26799,R,ugm-3
05-01-2020,22:00,59.42197,R,ugm-3
05-01-2020,23:00,59.52175,R,ugm-3
05-01-2020,24:00,61.11831,R,ugm-3
06-01-2020,01:00,63.26369,R,ugm-3
06-01-2020,02:00,64.12849,R,ugm-3
06-01-2020,03:00,65.00993,R,ugm-3
06-01-2020,04:00,69.55015,R,ugm-3
06-01-2020,05:00,70.34843,R,ugm-3
06-01-2020,06:00,68.40262,R,ugm-3
06-01-2020,07:00,69.64993,R,ugm-3
06-01-2020,08:00,69.25079,R,ugm-3
06-01-2020,09:00,69.64993,R,ugm-3
06-01-2020,10:00,64.41122,R,ugm-3
06-01-2020,11:00,61.86670,R,ugm-3
06-01-2020,12:00,60.27014,R,ugm-3
06-01-2020,13:00,58.22455,R,ugm-3
06-01-2020,14:00,58.47401,R,ugm-3
06-01-2020,15:00,60.46971,R,ugm-3
06-01-2020,16:00,62.61509,R,ugm-3
06-01-2020,17:00,63.61294,R,ugm-3
06-01-2020,18:00,58.62369,R,ugm-3
06-01-2020,19:00,53.83401,R,ugm-3
06-01-2020,20:00,53.58455,R,ugm-3
06-01-2020,21:00,53.38498,R,ugm-3
06-01-2020,22:00,51.78842,R,ugm-3
06-01-2020,23:00,49.89250,R,ugm-3
06-01-2020,24:00,50.24175,R,ugm-3
07-01-2020,01:00,50.35816,R,ugm-3
07-01-2020,02:00,47.56418,R,ugm-3
07-01-2020,03:00,44.20476,R,ugm-3
07-01-2020,04:00,44.45422,R,ugm-3
07-01-2020,05:00,45.75142,R,ugm-3
07-01-2020,06:00,46.74927,R,ugm-3
07-01-2020,07:00,46.35013,R,ugm-3
07-01-2020,08:00,43.45637,R,ugm-3
07-01-2020,09:00,42.75787,R,ugm-3
07-01-2020,10:00,40.16346,R,ugm-3
07-01-2020,11:00,44.55400,R,ugm-3
07-01-2020,12:00,46.05078,R,ugm-3
07-01-2020,13:00,42.85766,R,ugm-3
07-01-2020,14:00,47.64734,R,ugm-3
07-01-2020,15:00,50.79057,R,ugm-3
07-01-2020,16:00,50.74067,R,ugm-3
07-01-2020,17:00,52.33723,R,ugm-3
07-01-2020,18:00,52.43702,R,ugm-3
07-01-2020,19:00,51.88820,R,ugm-3
07-01-2020,20:00,49.44347,R,ugm-3
07-01-2020,21:00,53.68433,R,ugm-3
07-01-2020,22:00,55.03143,R,ugm-3
07-01-2020,23:00,54.68218,R,ugm-3
07-01-2020,24:00,57.97509,R,ugm-3
08-01-2020,01:00,59.53838,R,ugm-3
08-01-2020,02:00,58.20792,R,ugm-3
08-01-2020,03:00,60.32003,R,ugm-3
08-01-2020,04:00,61.46756,R,ugm-3
08-01-2020,05:00,59.52175,R,ugm-3
08-01-2020,06:00,58.47401,R,ugm-3
08-01-2020,07:00,57.97509,R,ugm-3
08-01-2020,08:00,57.42627,R,ugm-3
08-01-2020,09:00,55.53035,R,ugm-3
08-01-2020,10:00,50.24175,R,ugm-3
08-01-2020,11:00,50.39143,R,ugm-3
08-01-2020,12:00,53.43487,R,ugm-3
08-01-2020,13:00,56.27874,R,ugm-3
08-01-2020,14:00,64.71057,R,ugm-3
08-01-2020,15:00,61.51745,R,ugm-3
08-01-2020,16:00,61.21810,R,ugm-3
08-01-2020,17:00,64.31143,R,ugm-3
08-01-2020,18:00,58.07487,R,ugm-3
08-01-2020,19:00,55.77982,R,ugm-3
08-01-2020,20:00,51.68863,R,ugm-3
08-01-2020,21:00,55.38068,R,ugm-3
08-01-2020,22:00,48.89465,R,ugm-3
08-01-2020,23:00,40.16346,R,ugm-3
08-01-2020,24:00,47.59745,R,ugm-3
09-01-2020,01:00,55.34741,R,ugm-3
09-01-2020,02:00,56.74440,R,ugm-3
09-01-2020,03:00,41.46067,R,ugm-3
09-01-2020,04:00,40.86196,R,ugm-3
09-01-2020,05:00,41.76002,R,ugm-3
09-01-2020,06:00,43.50626,R,ugm-3
09-01-2020,07:00,47.49766,R,ugm-3
09-01-2020,08:00,50.99014,R,ugm-3
09-01-2020,09:00,51.73852,R,ugm-3
09-01-2020,10:00,54.03358,R,ugm-3
09-01-2020,11:00,58.52390,R,ugm-3
09-01-2020,12:00,59.97079,R,ugm-3
09-01-2020,13:00,59.32218,R,ugm-3
09-01-2020,14:00,60.66928,R,ugm-3
09-01-2020,15:00,59.92089,R,ugm-3
09-01-2020,16:00,55.28089,R,ugm-3
09-01-2020,17:00,52.33723,R,ugm-3
09-01-2020,18:00,48.49551,R,ugm-3
09-01-2020,19:00,49.24390,R,ugm-3
09-01-2020,20:00,45.00304,R,ugm-3
09-01-2020,21:00,48.89465,R,ugm-3
09-01-2020,22:00,46.74927,R,ugm-3
09-01-2020,23:00,54.88175,R,ugm-3
09-01-2020,24:00,67.60434,R,ugm-3
10-01-2020,01:00,72.24434,R,ugm-3
10-01-2020,02:00,73.77438,R,ugm-3
10-01-2020,03:00,76.73467,R,ugm-3
10-01-2020,04:00,77.53295,R,ugm-3
10-01-2020,05:00,75.08821,R,ugm-3
10-01-2020,06:00,75.43746,R,ugm-3
10-01-2020,07:00,71.29638,R,ugm-3
10-01-2020,08:00,66.70627,R,ugm-3
10-01-2020,09:00,46.64949,R,ugm-3
10-01-2020,10:00,41.11142,R,ugm-3
10-01-2020,11:00,45.75142,R,ugm-3
10-01-2020,12:00,47.49766,R,ugm-3
10-01-2020,13:00,46.89895,R,ugm-3
10-01-2020,14:00,45.60175,R,ugm-3
10-01-2020,15:00,47.59745,R,ugm-3
10-01-2020,16:00,43.05723,R,ugm-3
10-01-2020,17:00,41.76002,R,ugm-3
10-01-2020,18:00,39.31529,R,ugm-3
10-01-2020,19:00,39.46497,R,ugm-3
10-01-2020,20:00,38.56690,R,ugm-3
10-01-2020,21:00,36.62110,R,ugm-3
10-01-2020,22:00,39.16561,R,ugm-3
10-01-2020,23:00,42.75787,R,ugm-3
10-01-2020,24:00,41.76002,R,ugm-3
11-01-2020,01:00,37.78525,R,ugm-3
11-01-2020,02:00,44.63716,R,ugm-3
11-01-2020,03:00,45.05293,R,ugm-3
11-01-2020,04:00,48.59530,R,ugm-3
11-01-2020,05:00,55.77982,R,ugm-3
11-01-2020,06:00,59.22240,R,ugm-3
11-01-2020,07:00,58.42412,R,ugm-3
11-01-2020,08:00,59.22240,R,ugm-3
11-01-2020,09:00,61.61724,R,ugm-3
11-01-2020,10:00,63.01423,R,ugm-3
11-01-2020,11:00,62.71487,R,ugm-3
11-01-2020,12:00,63.21380,R,ugm-3
11-01-2020,13:00,65.25939,R,ugm-3
11-01-2020,14:00,64.06197,R,ugm-3
11-01-2020,15:00,62.66498,R,ugm-3
11-01-2020,16:00,61.66713,R,ugm-3
11-01-2020,17:00,63.21380,R,ugm-3
11-01-2020,18:00,62.66498,R,ugm-3
11-01-2020,19:00,63.46326,R,ugm-3
11-01-2020,20:00,63.91229,R,ugm-3
11-01-2020,21:00,65.00993,R,ugm-3
11-01-2020,22:00,64.61079,R,ugm-3
11-01-2020,23:00,63.71272,R,ugm-3
11-01-2020,24:00,63.06412,R,ugm-3
12-01-2020,01:00,60.93537,R,ugm-3
12-01-2020,02:00,55.74655,R,ugm-3
12-01-2020,03:00,56.77767,R,ugm-3
12-01-2020,04:00,57.32648,R,ugm-3
12-01-2020,05:00,57.97509,R,ugm-3
12-01-2020,06:00,58.72347,R,ugm-3
12-01-2020,07:00,58.82326,R,ugm-3
12-01-2020,08:00,59.82111,R,ugm-3
12-01-2020,09:00,59.72132,R,ugm-3
12-01-2020,10:00,57.12691,R,ugm-3
12-01-2020,11:00,60.96864,R,ugm-3
12-01-2020,12:00,63.46326,R,ugm-3
12-01-2020,13:00,66.60649,R,ugm-3
12-01-2020,14:00,64.66068,R,ugm-3
12-01-2020,15:00,61.91659,R,ugm-3
12-01-2020,16:00,60.86885,R,ugm-3
12-01-2020,17:00,58.57380,R,ugm-3
12-01-2020,18:00,57.67573,R,ugm-3
12-01-2020,19:00,53.43487,R,ugm-3
12-01-2020,20:00,50.64089,R,ugm-3
12-01-2020,21:00,47.59745,R,ugm-3
12-01-2020,22:00,46.84906,R,ugm-3
12-01-2020,23:00,45.80132,R,ugm-3
12-01-2020,24:00,47.64734,R,ugm-3
13-01-2020,01:00,51.75515,R,ugm-3
13-01-2020,02:00,51.62211,R,ugm-3
13-01-2020,03:00,50.44132,R,ugm-3
13-01-2020,04:00,50.34153,R,ugm-3
13-01-2020,05:00,50.69078,R,ugm-3
13-01-2020,06:00,50.84046,R,ugm-3
13-01-2020,07:00,51.08992,R,ugm-3
13-01-2020,08:00,46.15056,R,ugm-3
13-01-2020,09:00,45.90110,R,ugm-3
13-01-2020,10:00,47.84691,R,ugm-3
13-01-2020,11:00,50.99014,R,ugm-3
13-01-2020,12:00,53.03573,R,ugm-3
13-01-2020,13:00,59.17251,R,ugm-3
13-01-2020,14:00,62.51530,R,ugm-3
13-01-2020,15:00,63.86240,R,ugm-3
13-01-2020,16:00,66.25724,R,ugm-3
13-01-2020,17:00,62.11616,R,ugm-3
13-01-2020,18:00,62.46541,R,ugm-3
13-01-2020,19:00,60.41982,R,ugm-3
13-01-2020,20:00,58.67358,R,ugm-3
13-01-2020,21:00,59.22240,R,ugm-3
13-01-2020,22:00,71.04692,R,ugm-3
13-01-2020,23:00,74.28993,R,ugm-3
13-01-2020,24:00,71.09681,R,ugm-3
14-01-2020,01:00,69.45036,R,ugm-3
14-01-2020,02:00,67.78728,R,ugm-3
14-01-2020,03:00,66.05767,R,ugm-3
14-01-2020,04:00,66.05767,R,ugm-3
14-01-2020,05:00,65.30928,R,ugm-3
14-01-2020,06:00,64.91014,R,ugm-3
14-01-2020,07:00,64.91014,R,ugm-3
14-01-2020,08:00,63.51315,R,ugm-3
14-01-2020,09:00,58.92304,R,ugm-3
14-01-2020,10:00,55.03143,R,ugm-3
14-01-2020,11:00,54.33293,R,ugm-3
14-01-2020,12:00,53.18541,R,ugm-3
14-01-2020,13:00,59.72132,R,ugm-3
14-01-2020,14:00,60.56950,R,ugm-3
14-01-2020,15:00,59.57165,R,ugm-3
14-01-2020,16:00,56.12906,R,ugm-3
14-01-2020,17:00,62.31573,R,ugm-3
14-01-2020,18:00,64.76047,R,ugm-3
14-01-2020,19:00,65.85810,R,ugm-3
14-01-2020,20:00,67.10541,R,ugm-3
14-01-2020,21:00,80.22714,R,ugm-3
14-01-2020,22:00,76.33553,R,ugm-3
14-01-2020,23:00,70.74757,R,ugm-3
14-01-2020,24:00,66.90584,R,ugm-3
15-01-2020,01:00,72.57696,R,ugm-3
15-01-2020,02:00,69.78298,R,ugm-3
15-01-2020,03:00,67.40477,R,ugm-3
15-01-2020,04:00,66.45681,R,ugm-3
15-01-2020,05:00,65.90799,R,ugm-3
15-01-2020,06:00,66.00778,R,ugm-3
15-01-2020,07:00,66.45681,R,ugm-3
15-01-2020,08:00,63.31358,R,ugm-3
15-01-2020,09:00,62.81466,R,ugm-3
15-01-2020,10:00,60.12046,R,ugm-3
15-01-2020,11:00,57.52605,R,ugm-3
15-01-2020,12:00,53.43487,R,ugm-3
15-01-2020,13:00,41.56045,R,ugm-3
15-01-2020,14:00,47.59745,R,ugm-3
15-01-2020,15:00,49.29379,R,ugm-3
15-01-2020,16:00,51.88820,R,ugm-3
15-01-2020,17:00,57.62584,R,ugm-3
15-01-2020,18:00,54.98154,R,ugm-3
15-01-2020,19:00,55.97939,R,ugm-3
15-01-2020,20:00,58.57380,R,ugm-3
15-01-2020,21:00,56.57810,R,ugm-3
15-01-2020,22:00,57.17681,R,ugm-3
15-01-2020,23:00,55.38068,R,ugm-3
15-01-2020,24:00,56.22885,R,ugm-3
16-01-2020,01:00,54.94827,R,ugm-3
16-01-2020,02:00,50.22512,R,ugm-3
16-01-2020,03:00,49.89250,R,ugm-3
16-01-2020,04:00,46.64949,R,ugm-3
16-01-2020,05:00,48.99444,R,ugm-3
16-01-2020,06:00,49.99229,R,ugm-3
16-01-2020,07:00,51.83831,R,ugm-3
16-01-2020,08:00,52.48691,R,ugm-3
16-01-2020,09:00,51.08992,R,ugm-3
16-01-2020,10:00,48.24605,R,ugm-3
16-01-2020,11:00,50.44132,R,ugm-3
16-01-2020,12:00,55.08132,R,ugm-3
16-01-2020,13:00,57.77552,R,ugm-3
16-01-2020,14:00,58.97294,R,ugm-3
16-01-2020,15:00,56.62799,R,ugm-3
16-01-2020,16:00,51.33938,R,ugm-3
16-01-2020,17:00,49.19401,R,ugm-3
16-01-2020,18:00,51.88820,R,ugm-3
16-01-2020,19:00,55.68003,R,ugm-3
16-01-2020,20:00,59.77122,R,ugm-3
16-01-2020,21:00,59.72132,R,ugm-3
16-01-2020,22:00,56.77767,R,ugm-3
16-01-2020,23:00,55.58025,R,ugm-3
16-01-2020,24:00,54.78197,R,ugm-3
17-01-2020,01:00,54.41609,R,ugm-3
17-01-2020,02:00,54.61566,R,ugm-3
17-01-2020,03:00,55.58025,R,ugm-3
17-01-2020,04:00,56.52820,R,ugm-3
17-01-2020,05:00,54.33293,R,ugm-3
17-01-2020,06:00,53.08562,R,ugm-3
17-01-2020,07:00,52.98584,R,ugm-3
17-01-2020,08:00,53.58455,R,ugm-3
17-01-2020,09:00,55.43057,R,ugm-3
17-01-2020,10:00,65.20950,R,ugm-3
17-01-2020,11:00,62.06627,R,ugm-3
17-01-2020,12:00,61.76692,R,ugm-3
17-01-2020,13:00,65.05982,R,ugm-3
17-01-2020,14:00,67.15531,R,ugm-3
17-01-2020,15:00,60.51960,R,ugm-3
17-01-2020,16:00,63.66283,R,ugm-3
17-01-2020,17:00,57.67573,R,ugm-3
17-01-2020,18:00,56.02928,R,ugm-3
17-01-2020,19:00,53.03573,R,ugm-3
17-01-2020,20:00,53.88390,R,ugm-3
17-01-2020,21:00,53.43487,R,ugm-3
17-01-2020,22:00,52.68648,R,ugm-3
17-01-2020,23:00,52.23745,R,ugm-3
17-01-2020,24:00,51.48906,R,ugm-3
18-01-2020,01:00,51.15644,R,ugm-3
18-01-2020,02:00,55.87960,R,ugm-3
18-01-2020,03:00,57.37638,R,ugm-3
18-01-2020,04:00,53.03573,R,ugm-3
18-01-2020,05:00,54.98154,R,ugm-3
18-01-2020,06:00,57.62584,R,ugm-3
18-01-2020,07:00,57.97509,R,ugm-3
18-01-2020,08:00,58.97294,R,ugm-3
18-01-2020,09:00,57.42627,R,ugm-3
18-01-2020,10:00,55.58025,R,ugm-3
18-01-2020,11:00,53.33508,R,ugm-3
18-01-2020,12:00,52.33723,R,ugm-3
18-01-2020,13:00,52.73637,R,ugm-3
18-01-2020,14:00,59.02283,R,ugm-3
18-01-2020,15:00,62.91444,R,ugm-3
18-01-2020,16:00,61.61724,R,ugm-3
18-01-2020,17:00,56.82756,R,ugm-3
18-01-2020,18:00,55.77982,R,ugm-3
18-01-2020,19:00,51.43917,R,ugm-3
18-01-2020,20:00,55.33078,R,ugm-3
18-01-2020,21:00,60.66928,R,ugm-3
18-01-2020,22:00,62.71487,R,ugm-3
18-01-2020,23:00,61.51745,R,ugm-3
18-01-2020,24:00,59.92089,R,ugm-3
19-01-2020,01:00,62.06627,R,ugm-3
19-01-2020,02:00,63.39674,R,ugm-3
19-01-2020,03:00,65.55875,R,ugm-3
19-01-2020,04:00,67.10541,R,ugm-3
19-01-2020,05:00,64.01208,R,ugm-3
19-01-2020,06:00,62.36563,R,ugm-3
19-01-2020,07:00,65.95789,R,ugm-3
19-01-2020,08:00,68.80176,R,ugm-3
19-01-2020,09:00,64.86025,R,ugm-3
19-01-2020,10:00,53.98369,R,ugm-3
19-01-2020,11:00,53.83401,R,ugm-3
19-01-2020,12:00,56.17896,R,ugm-3
19-01-2020,13:00,59.62154,R,ugm-3
19-01-2020,14:00,55.97939,R,ugm-3
19-01-2020,15:00,56.72777,R,ugm-3
19-01-2020,16:00,50.44132,R,ugm-3
19-01-2020,17:00,43.05723,R,ugm-3
19-01-2020,18:00,48.74497,R,ugm-3
19-01-2020,19:00,42.75787,R,ugm-3
19-01-2020,20:00,39.66454,R,ugm-3
19-01-2020,21:00,35.57335,R,ugm-3
19-01-2020,22:00,36.22196,R,ugm-3
19-01-2020,23:00,38.51701,R,ugm-3
19-01-2020,24:00,36.07228,R,ugm-3
20-01-2020,01:00,29.20374,R,ugm-3
20-01-2020,02:00,27.07500,R,ugm-3
20-01-2020,03:00,37.26970,R,ugm-3
20-01-2020,04:00,37.31959,R,ugm-3
20-01-2020,05:00,40.96174,R,ugm-3
20-01-2020,06:00,33.12862,R,ugm-3
20-01-2020,07:00,26.89206,R,ugm-3
20-01-2020,08:00,16.26496,R,ugm-3
20-01-2020,09:00,16.16517,R,ugm-3
20-01-2020,10:00,23.39958,R,ugm-3
20-01-2020,11:00,36.52131,R,ugm-3
20-01-2020,12:00,40.61250,R,ugm-3
20-01-2020,13:00,52.18756,R,ugm-3
20-01-2020,14:00,54.48261,R,ugm-3
20-01-2020,15:00,55.48046,R,ugm-3
20-01-2020,16:00,52.58670,R,ugm-3
20-01-2020,17:00,43.60605,R,ugm-3
20-01-2020,18:00,26.64260,R,ugm-3
20-01-2020,19:00,21.85292,R,ugm-3
20-01-2020,20:00,22.20216,R,ugm-3
20-01-2020,21:00,21.15442,R,ugm-3
20-01-2020,22:00,20.10668,R,ugm-3
20-01-2020,23:00,18.95915,R,ugm-3
20-01-2020,24:00,15.71614,R,ugm-3
21-01-2020,01:00,16.89693,R,ugm-3
21-01-2020,02:00,19.49134,R,ugm-3
21-01-2020,03:00,19.05894,R,ugm-3
21-01-2020,04:00,18.90926,R,ugm-3
21-01-2020,05:00,18.46023,R,ugm-3
21-01-2020,06:00,17.31270,R,ugm-3
21-01-2020,07:00,17.91141,R,ugm-3
21-01-2020,08:00,18.75958,R,ugm-3
21-01-2020,09:00,18.75958,R,ugm-3
21-01-2020,10:00,22.90066,R,ugm-3
21-01-2020,11:00,30.18496,R,ugm-3
21-01-2020,12:00,38.81637,R,ugm-3
21-01-2020,13:00,44.15486,R,ugm-3
21-01-2020,14:00,46.94884,R,ugm-3
21-01-2020,15:00,29.48647,R,ugm-3
21-01-2020,16:00,26.59270,R,ugm-3
21-01-2020,17:00,30.08518,R,ugm-3
21-01-2020,18:00,21.75313,R,ugm-3
21-01-2020,19:00,23.94840,R,ugm-3
21-01-2020,20:00,21.45378,R,ugm-3
21-01-2020,21:00,13.32130,R,ugm-3
21-01-2020,22:00,8.53162,R,ugm-3
21-01-2020,23:00,6.38624,R,ugm-3
21-01-2020,24:00,5.73764,R,ugm-3
22-01-2020,01:00,7.51714,R,ugm-3
22-01-2020,02:00,22.61793,R,ugm-3
22-01-2020,03:00,22.55141,R,ugm-3
22-01-2020,04:00,21.00474,R,ugm-3
22-01-2020,05:00,18.70969,R,ugm-3
22-01-2020,06:00,15.96560,R,ugm-3
22-01-2020,07:00,15.26711,R,ugm-3
22-01-2020,08:00,15.31700,R,ugm-3
22-01-2020,09:00,10.07829,R,ugm-3
22-01-2020,10:00,13.52087,R,ugm-3
22-01-2020,11:00,16.51442,R,ugm-3
22-01-2020,12:00,18.11098,R,ugm-3
22-01-2020,13:00,20.00689,R,ugm-3
22-01-2020,14:00,24.64690,R,ugm-3
22-01-2020,15:00,24.54711,R,ugm-3
22-01-2020,16:00,21.25421,R,ugm-3
22-01-2020,17:00,20.90496,R,ugm-3
22-01-2020,18:00,21.45378,R,ugm-3
22-01-2020,19:00,18.01119,R,ugm-3
22-01-2020,20:00,11.92431,R,ugm-3
22-01-2020,21:00,9.47958,R,ugm-3
22-01-2020,22:00,11.17592,R,ugm-3
22-01-2020,23:00,18.31055,R,ugm-3
22-01-2020,24:00,20.00689,R,ugm-3
23-01-2020,01:00,28.53851,R,ugm-3
23-01-2020,02:00,22.88403,R,ugm-3
23-01-2020,03:00,26.09378,R,ugm-3
23-01-2020,04:00,32.13077,R,ugm-3
23-01-2020,05:00,31.08303,R,ugm-3
23-01-2020,06:00,40.01379,R,ugm-3
23-01-2020,07:00,45.10282,R,ugm-3
23-01-2020,08:00,46.15056,R,ugm-3
23-01-2020,09:00,44.60390,R,ugm-3
23-01-2020,10:00,38.16776,R,ugm-3
23-01-2020,11:00,47.89680,R,ugm-3
23-01-2020,12:00,49.74282,R,ugm-3
23-01-2020,13:00,53.83401,R,ugm-3
23-01-2020,14:00,56.17896,R,ugm-3
23-01-2020,15:00,55.38068,R,ugm-3
23-01-2020,16:00,55.03143,R,ugm-3
23-01-2020,17:00,54.48261,R,ugm-3
23-01-2020,18:00,49.54325,R,ugm-3
23-01-2020,19:00,52.58670,R,ugm-3
23-01-2020,20:00,50.69078,R,ugm-3
23-01-2020,21:00,47.69723,R,ugm-3
23-01-2020,22:00,45.30239,R,ugm-3
23-01-2020,23:00,38.51701,R,ugm-3
23-01-2020,24:00,34.22626,R,ugm-3
24-01-2020,01:00,31.86468,R,ugm-3
24-01-2020,02:00,31.93120,R,ugm-3
24-01-2020,03:00,29.28690,R,ugm-3
24-01-2020,04:00,21.75313,R,ugm-3
24-01-2020,05:00,22.15227,R,ugm-3
24-01-2020,06:00,23.44948,R,ugm-3
24-01-2020,07:00,23.15012,R,ugm-3
24-01-2020,08:00,24.09808,R,ugm-3
24-01-2020,09:00,25.29550,R,ugm-3
24-01-2020,10:00,29.23701,R,ugm-3
24-01-2020,11:00,26.24346,R,ugm-3
24-01-2020,12:00,26.34324,R,ugm-3
24-01-2020,13:00,33.57765,R,ugm-3
24-01-2020,14:00,34.52561,R,ugm-3
24-01-2020,15:00,34.02669,R,ugm-3
24-01-2020,16:00,23.84862,R,ugm-3
24-01-2020,17:00,20.60560,R,ugm-3
24-01-2020,18:00,13.52087,R,ugm-3
24-01-2020,19:00,13.27141,R,ugm-3
24-01-2020,20:00,12.67270,R,ugm-3
24-01-2020,21:00,10.72689,R,ugm-3
24-01-2020,22:00,9.18022,R,ugm-3
24-01-2020,23:00,8.43183,R,ugm-3
24-01-2020,24:00,5.58796,R,ugm-3
25-01-2020,01:00,5.18882,R,ugm-3
25-01-2020,02:00,6.85190,R,ugm-3
25-01-2020,03:00,13.02194,R,ugm-3
25-01-2020,04:00,17.66195,R,ugm-3
25-01-2020,05:00,22.65120,R,ugm-3
25-01-2020,06:00,27.39098,R,ugm-3
25-01-2020,07:00,36.07228,R,ugm-3
25-01-2020,08:00,50.69078,R,ugm-3
25-01-2020,09:00,55.23100,R,ugm-3
25-01-2020,10:00,55.72992,R,ugm-3
25-01-2020,11:00,53.68433,R,ugm-3
25-01-2020,12:00,48.79487,R,ugm-3
25-01-2020,13:00,53.18541,R,ugm-3
25-01-2020,14:00,51.43917,R,ugm-3
25-01-2020,15:00,55.18111,R,ugm-3
25-01-2020,16:00,52.48691,R,ugm-3
25-01-2020,17:00,43.70583,R,ugm-3
25-01-2020,18:00,29.38668,R,ugm-3
25-01-2020,19:00,33.67744,R,ugm-3
25-01-2020,20:00,39.96389,R,ugm-3
25-01-2020,21:00,45.65164,R,ugm-3
25-01-2020,22:00,43.65594,R,ugm-3
25-01-2020,23:00,40.96174,R,ugm-3
25-01-2020,24:00,31.33249,R,ugm-3
26-01-2020,01:00,30.26812,R,ugm-3
26-01-2020,02:00,33.79385,R,ugm-3
26-01-2020,03:00,33.42798,R,ugm-3
26-01-2020,04:00,31.28260,R,ugm-3
26-01-2020,05:00,32.28045,R,ugm-3
26-01-2020,06:00,34.47572,R,ugm-3
26-01-2020,07:00,34.72518,R,ugm-3
26-01-2020,08:00,35.27400,R,ugm-3
26-01-2020,09:00,34.17636,R,ugm-3
26-01-2020,10:00,38.71658,R,ugm-3
26-01-2020,11:00,48.64519,R,ugm-3
26-01-2020,12:00,50.59100,R,ugm-3
26-01-2020,13:00,50.89035,R,ugm-3
26-01-2020,14:00,49.04433,R,ugm-3
26-01-2020,15:00,48.29594,R,ugm-3
26-01-2020,16:00,49.14411,R,ugm-3
26-01-2020,17:00,49.04433,R,ugm-3
26-01-2020,18:00,39.06583,R,ugm-3
26-01-2020,19:00,38.01809,R,ugm-3
26-01-2020,20:00,42.25895,R,ugm-3
26-01-2020,21:00,44.95314,R,ugm-3
26-01-2020,22:00,44.50411,R,ugm-3
26-01-2020,23:00,45.50196,R,ugm-3
26-01-2020,24:00,49.24390,R,ugm-3
27-01-2020,01:00,53.88390,R,ugm-3
27-01-2020,02:00,56.41179,R,ugm-3
27-01-2020,03:00,59.02283,R,ugm-3
27-01-2020,04:00,56.42842,R,ugm-3
27-01-2020,05:00,57.52605,R,ugm-3
27-01-2020,06:00,58.52390,R,ugm-3
27-01-2020,07:00,57.92519,R,ugm-3
27-01-2020,08:00,57.67573,R,ugm-3
27-01-2020,09:00,58.52390,R,ugm-3
27-01-2020,10:00,63.51315,R,ugm-3
27-01-2020,11:00,63.06412,R,ugm-3
27-01-2020,12:00,58.67358,R,ugm-3
27-01-2020,13:00,60.36993,R,ugm-3
27-01-2020,14:00,61.76692,R,ugm-3
27-01-2020,15:00,60.17036,R,ugm-3
27-01-2020,16:00,55.43057,R,ugm-3
27-01-2020,17:00,51.73852,R,ugm-3
27-01-2020,18:00,46.10067,R,ugm-3
27-01-2020,19:00,47.59745,R,ugm-3
27-01-2020,20:00,58.07487,R,ugm-3
27-01-2020,21:00,58.87315,R,ugm-3
27-01-2020,22:00,62.36563,R,ugm-3
27-01-2020,23:00,58.67358,R,ugm-3
27-01-2020,24:00,55.33078,R,ugm-3
28-01-2020,01:00,50.69078,R,ugm-3
28-01-2020,02:00,44.77020,R,ugm-3
28-01-2020,03:00,45.55185,R,ugm-3
28-01-2020,04:00,47.99659,R,ugm-3
28-01-2020,05:00,54.38283,R,ugm-3
28-01-2020,06:00,61.11831,R,ugm-3
28-01-2020,07:00,59.72132,R,ugm-3
28-01-2020,08:00,61.96649,R,ugm-3
28-01-2020,09:00,61.41767,R,ugm-3
28-01-2020,10:00,59.17251,R,ugm-3
28-01-2020,11:00,59.57165,R,ugm-3
28-01-2020,12:00,56.92734,R,ugm-3
28-01-2020,13:00,58.27444,R,ugm-3
28-01-2020,14:00,56.97724,R,ugm-3
28-01-2020,15:00,59.52175,R,ugm-3
28-01-2020,16:00,61.86670,R,ugm-3
28-01-2020,17:00,64.01208,R,ugm-3
28-01-2020,18:00,63.56305,R,ugm-3
28-01-2020,19:00,59.57165,R,ugm-3
28-01-2020,20:00,60.76907,R,ugm-3
28-01-2020,21:00,58.67358,R,ugm-3
28-01-2020,22:00,55.53035,R,ugm-3
28-01-2020,23:00,58.67358,R,ugm-3
28-01-2020,24:00,61.01853,R,ugm-3
29-01-2020,01:00,60.27014,R,ugm-3
29-01-2020,02:00,58.80663,R,ugm-3
29-01-2020,03:00,57.72562,R,ugm-3
29-01-2020,04:00,57.42627,R,ugm-3
29-01-2020,05:00,56.97724,R,ugm-3
29-01-2020,06:00,61.11831,R,ugm-3
29-01-2020,07:00,62.46541,R,ugm-3
29-01-2020,08:00,60.86885,R,ugm-3
29-01-2020,09:00,58.32433,R,ugm-3
29-01-2020,10:00,58.82326,R,ugm-3
29-01-2020,11:00,59.37208,R,ugm-3
29-01-2020,12:00,59.02283,R,ugm-3
29-01-2020,13:00,58.47401,R,ugm-3
29-01-2020,14:00,57.57595,R,ugm-3
29-01-2020,15:00,57.37638,R,ugm-3
29-01-2020,16:00,59.80448,R,ugm-3
29-01-2020,17:00,61.26799,R,ugm-3
29-01-2020,18:00,60.56950,R,ugm-3
29-01-2020,19:00,60.71917,R,ugm-3
29-01-2020,20:00,63.56305,R,ugm-3
29-01-2020,21:00,62.96434,R,ugm-3
29-01-2020,22:00,63.11401,R,ugm-3
29-01-2020,23:00,64.76047,R,ugm-3
29-01-2020,24:00,65.10971,R,ugm-3
30-01-2020,01:00,63.72935,R,ugm-3
30-01-2020,02:00,64.12849,R,ugm-3
30-01-2020,03:00,68.00348,R,ugm-3
30-01-2020,04:00,70.89724,R,ugm-3